Location: Gouy
(50.0008°N, 3.2556°E)
Time: 13:37:54
(UTC+00:00)

Helios 1A Rocket - Pass Details

Date: 23 May 2024
Orbit: 520 x 543 km, 98.3° (Epoch: 16 June)

Event Time Altitude Azimuth Distance (km) Brightness Sun altitude
Exits shadow 01:43:19 20° 245° (WSW) 1,266 4.2 -14.6°
Maximum altitude 01:44:15 22° 266° (W) 1,200 4.2 -14.5°
Drops below altitude 10° 01:47:19 10° 318° (NW) 1,795 5.7 -14.2°
Sets 01:49:48 0° 334° (NNW) 2,686 6.8 -14.0°
